Starlink 32201

operational
NORAD ID: 61512 Int'l Des: 2024-183 Owner: SPXS Country: US Constellation: starlink
LEOCIRCULAR

Starlink 32201について

説明を読み込み中...

リアルタイム位置

3D地球を読み込み中...

次回通過

高度履歴

Altitude vs Time

uPlot chart will show altitude changes over time

軌道要素

1 61512U 24183D 26062.48658086 -.00001350 00000-0 -33504-4 0 9994
2 61512 53.1608 158.4162 0001127 86.6964 273.4166 15.30174010 78889
Epoch: Mar 3, 2026 • Age: 29 hours

現在のステータス

高度 479.2 km
速度 7.63 km/s
衛星直下点 -13.62°S, 89.98°W
打ち上げ日 Oct 15, 2024
運用期間 1.3 years
タイプ internet

技術仕様

分類 Payload
質量 730.00 kg
乾燥質量 700.00 kg
総質量 730.00 kg
長さ 0.30 m
直径 4.10 m
スパン 29.00 m
形状 Box + pan
製造者 SPXS
バスタイプ Starlink V2M
フェーズステータス In Orbit
所有者/国 SPXS/US

大規模コンステレーション

Loading constellations...